GEFSSE_con_cape1000_114.txt.gz
Probability
65 74 97 94 100 100 100 100 100 100 97 100 100 100 97 100 94 94 94 94 87 87 84 87 84 81 81 84 90 94 94 97 94 97 100 97 94 94 90 94 87 81 94
65 84 97 94 100 100 100 100 100 100 100 100 100 100 100 100 94 94 97 94 84 87 87 87 84 84 87 90 94 94 94 90 94 90 90 90 90 87 87 84 90 90 94
77 90 94 97 97 97 100 100 100 100 100 100 100 100 100 97 97 97 97 97 97 94 94 94 97 97 90 94 90 90 90 87 87 87 90 81 87 90 94 90 90 94 97
71 81 94 97 100 100 100 100 100 100 100 100 100 100 97 97 97 94 90 94 100 100 94 94 100 90 90 90 87 84 81 81 81 84 77 61 71 94 94 87 90 90 94
71 81 100 97 100 100 100 100 100 100 100 100 100 97 97 97 97 97 94 97 94 97 97 97 97 94 90 90 84 74 71 71 81 77 84 84 87 94 90 90 84 90 90
77 90 100 100 100 100 100 100 100 100 100 100 97 97 97 97 97 97 97 97 97 94 90 94 100 100 90 90 81 71 71 68 71 77 84 84 90 94 94 90 90 90 90
87 94 100 100 100 100 100 100 100 100 100 97 97 97 97 94 94 94 94 90 90 97 94 90 90 87 81 87 77 74 77 71 90 81 77 94 100 100 100 100 97 97 100
90 94 100 100 100 100 100 100 100 100 97 97 97 97 94 94 90 90 90 90 87 84 84 77 81 87 81 87 77 71 68 87 81 77 94 97 100 97 100 97 94 97 94
90 94 94 97 97 97 100 100 100 100 97 97 97 94 94 90 90 90 90 90 84 81 77 77 77 84 81 87 71 55 71 97 84 97 84 90 100 100 100 100 97 94 90
87 87 87 90 90 97 100 100 100 97 97 97 94 94 94 90 90 90 90 90 74 81 68 71 77 74 71 74 81 71 74 81 58 65 71 97 100 97 97 97 97 94 94
87 81 81 87 90 87 94 97 100 97 97 97 94 94 94 90 90 90 90 87 77 74 71 58 61 68 74 71 65 71 65 65 45 74 87 100 100 97 94 94 97 94 94
77 74 84 90 90 87 84 87 90 94 97 94 94 94 94 94 90 87 77 81 71 71 65 65 68 65 61 61 58 74 65 58 48 81 94 100 100 97 94 90 94 97 94
71 74 81 84 90 87 87 87 84 87 90 90 94 94 94 87 84 74 77 74 77 74 71 74 68 58 65 74 71 71 71 68 71 65 94 100 100 97 97 97 90 94 94
71 77 74 84 90 90 84 90 87 87 90 90 94 87 87 84 74 77 77 71 77 74 77 71 81 74 65 61 65 61 68 68 71 81 94 100 97 97 94 87 90 90 90
74 71 74 84 87 84 81 84 81 84 84 81 87 90 87 87 74 74 77 77 65 71 71 74 77 58 55 55 58 61 55 68 61 71 81 94 94 90 87 81 74 71 74
68 71 71 81 77 77 77 81 81 74 81 77 87 87 74 77 74 71 71 74 68 71 65 71 65 61 61 68 61 71 55 61 81 81 77 87 94 94 84 81 71 65 71
65 68 71 74 77 77 77 77 74 77 71 74 74 71 71 71 65 61 65 68 65 58 48 58 45 52 61 55 61 61 71 77 84 81 71 74 77 84 84 87 77 74 74
65 71 71 68 68 81 81 81 71 81 71 74 71 68 65 65 55 61 65 61 58 48 48 58 52 48 55 65 71 71 71 81 74 71 65 68 71 52 71 81 81 74 77
71 71 65 68 74 81 81 87 81 77 77 74 71 68 58 48 42 52 68 61 39 39 42 26 52 52 48 55 48 65 61 71 58 52 58 61 77 68 52 68 81 81 68
68 68 71 65 74 77 77 77 77 77 71 65 65 61 55 45 39 42 55 35 29 35 39 39 48 42 45 42 3 10 48 55 52 52 42 55 65 48 48 39 48 48 61
65 68 65 74 74 71 71 74 77 71 68 65 61 55 48 39 39 39 35 29 32 35 32 32 26 26 32 35 26 26 26 19 19 35 29 39 42 42 52 52 32 23 26
65 61 65 74 74 74 84 84 87 74 68 61 58 48 45 32 35 16 42 29 19 32 29 29 26 29 26 29 26 16 13 13 26 6 32 32 26 29 29 23 35 55 19
71 65 61 81 84 77 77 74 84 81 68 61 58 58 39 29 23 23 23 23 26 32 29 26 29 26 23 19 10 26 23 16 23 23 10 10 16 19 19 23 16 23 29
68 65 74 77 81 74 81 81 81 61 55 61 68 71 55 32 23 23 10 16 23 29 35 29 26 26 26 19 23 13 19 32 13 13 13 13 13 19 10 3 6 19 23
74 74 74 77 77 74 74 81 81 77 68 71 68 68 61 39 35 23 16 16 19 26 23 19 29 26 23 32 19 16 16 19 10 10 6 6 10 13 10 10 13 13 23
68 77 71 71 74 74 74 81 84 77 77 71 68 55 65 61 48 29 19 26 26 26 23 13 16 13 23 26 29 29 10 6 6 13 6 6 6 6 6 6 6 19 16

GEFSSE_con_cape1000_120.txt.gz
Probability
81 94 100 100 100 100 100 100 100 100 100 100 100 100 97 97 100 100 100 94 97 100 100 100 100 100 100 100 100 100 100 100 100 100 100 97 100 100 97 97 90 81 94
84 94 100 100 100 100 100 100 100 100 100 100 100 100 97 100 100 100 100 97 97 100 100 100 100 100 100 100 100 100 100 100 94 97 97 94 97 97 97 97 90 81 97
84 94 97 100 100 100 100 100 100 100 100 100 100 100 100 100 100 100 100 100 100 100 100 100 100 97 97 94 100 100 94 94 90 97 94 61 97 97 100 97 97 97 97
87 90 97 100 100 100 100 100 100 100 100 100 100 97 97 97 97 97 100 100 97 100 100 97 94 97 100 97 97 94 94 94 94 90 19 39 58 100 100 100 97 100 97
87 94 97 100 100 100 100 100 100 100 100 97 97 97 97 97 97 97 97 97 97 97 97 100 94 97 94 87 87 90 84 84 84 48 13 32 77 100 94 94 97 94 90
87 94 97 97 97 97 97 100 100 100 97 97 97 97 97 97 97 97 97 97 97 97 97 97 97 97 94 94 84 84 77 77 52 19 32 48 81 100 90 87 87 90 87
90 97 97 97 97 97 97 97 100 100 97 97 97 97 97 97 97 97 97 97 97 97 97 94 90 90 94 94 87 90 87 84 26 19 35 58 87 97 94 94 90 97 90
84 90 97 97 97 97 97 100 100 97 97 97 97 97 97 97 97 97 97 97 97 97 94 87 87 84 90 87 90 94 94 84 48 26 42 58 100 100 97 97 100 94 87
87 90 90 94 94 97 97 97 97 97 97 97 97 97 97 94 94 94 94 97 90 84 87 81 84 77 81 84 87 77 90 90 16 26 35 77 100 100 100 100 97 94 87
87 87 87 87 90 94 94 97 97 94 94 94 97 94 94 94 94 94 94 90 84 74 71 74 71 68 84 81 84 84 90 74 10 23 45 94 100 100 100 100 100 97 97
77 84 84 84 81 84 90 90 94 94 94 94 90 94 90 87 87 94 84 84 84 74 71 71 61 58 74 74 84 87 58 6 19 19 42 94 100 100 100 100 100 100 100
71 71 84 81 81 84 87 87 90 90 94 87 84 84 55 32 45 68 84 84 77 68 68 68 68 65 52 26 32 39 6 16 16 23 65 97 100 100 100 100 100 100 100
61 61 71 74 77 74 77 81 71 74 71 68 74 55 29 16 39 42 55 68 58 55 42 45 45 32 19 6 6 6 10 10 10 23 81 100 100 97 97 97 97 100 100
48 55 58 61 52 45 65 65 52 48 45 45 45 35 19 16 16 23 26 23 19 16 13 13 19 10 6 3 6 6 6 10 10 26 74 100 100 97 97 97 97 97 100
42 48 48 48 42 39 35 42 52 42 35 32 32 26 19 10 0 13 10 6 3 3 6 6 6 6 3 3 3 3 6 3 10 35 65 97 100 97 97 97 97 94 97
32 32 42 35 35 35 32 26 32 32 16 26 29 26 16 3 0 0 0 6 3 3 3 3 0 3 0 0 0 0 0 3 10 19 52 84 100 97 97 97 97 94 94
32 26 23 32 32 29 23 23 32 26 29 26 23 23 19 10 0 3 0 0 0 3 0 0 0 0 0 0 0 0 0 3 10 16 42 68 74 94 97 94 97 97 94
23 23 16 29 23 19 23 23 23 32 26 19 16 13 13 3 0 3 3 0 0 0 3 3 0 0 0 0 0 0 0 0 10 10 16 29 55 68 81 87 87 87 84
23 19 19 29 19 26 26 23 23 19 19 19 19 10 13 3 6 6 3 0 0 0 0 0 0 0 0 0 0 0 0 0 0 6 10 16 13 19 32 71 84 84 77
29 23 26 26 26 26 23 23 23 16 16 23 23 10 6 6 3 0 0 0 0 0 0 0 0 0 0 0 0 0 0 0 0 0 3 6 6 10 10 23 52 65 74
35 26 23 29 26 23 23 23 19 16 16 6 10 6 6 3 0 0 0 0 0 0 0 0 0 0 0 0 0 0 0 0 0 0 0 3 0 3 6 10 10 10 19
32 29 23 26 23 19 16 13 6 6 3 0 0 0 3 3 0 0 3 0 0 0 0 0 0 0 0 0 0 0 0 0 0 0 0 0 0 3 3 10 3 3 0
39 26 26 26 23 23 19 13 6 3 3 0 0 0 0 3 3 0 0 0 0 0 0 0 0 0 0 0 0 0 0 0 0 0 0 0 0 0 0 6 6 0 0
35 29 19 26 23 23 19 13 10 3 3 0 0 0 0 0 3 0 0 0 0 0 0 0 0 0 0 0 0 0 0 0 0 0 0 0 0 0 0 0 0 0 0
39 35 19 23 19 19 16 13 10 6 0 0 0 0 0 0 0 3 0 0 0 0 0 0 0 0 0 0 0 0 0 0 0 0 0 0 0 0 0 0 0 0 0
32 35 19 19 16 16 13 6 6 3 0 0 0 0 0 0 0 0 0 0 0 0 0 0 0 0 0 0 0 0 0 0 0 0 0 0 0 0 0 0 0 0 0

GEFSSE_con_cape1000_126.txt.gz
Probability
45 90 100 97 97 100 100 100 100 100 100 100 100 100 100 100 100 100 97 100 100 100 100 97 97 100 100 97 94 97 100 100 100 97 97 97 97 97 97 94 81 74 94
58 90 97 97 97 100 100 100 100 100 100 100 100 100 100 100 97 97 97 97 100 100 97 94 97 97 97 100 97 100 100 100 100 97 97 94 94 97 90 90 87 84 90
81 94 97 97 97 100 100 100 100 100 100 100 100 100 100 100 97 97 97 97 100 100 97 94 90 94 100 100 94 97 97 97 97 97 87 81 84 90 90 94 94 90 90
87 94 97 97 97 97 100 100 100 100 100 100 100 100 100 100 100 100 97 97 100 100 90 90 90 87 97 97 94 100 97 97 94 87 52 68 77 90 97 94 100 97 94
90 90 97 97 97 97 97 97 100 100 100 100 97 97 97 97 97 100 97 97 100 100 97 87 84 87 94 97 94 94 90 87 87 48 45 58 81 90 94 94 97 97 87
87 94 97 97 97 97 97 97 97 97 97 97 97 97 97 97 97 97 97 97 97 100 94 90 90 94 94 90 90 90 90 81 55 35 55 71 97 100 97 100 97 97 97
90 94 97 97 97 97 97 97 97 94 94 97 97 97 97 97 97 97 97 97 97 94 97 87 87 94 87 87 87 84 87 74 13 35 61 74 100 100 97 97 90 90 94
90 97 97 97 97 97 97 97 94 94 94 94 97 94 94 94 94 97 97 97 97 90 90 87 81 81 81 87 87 90 87 65 42 29 61 81 100 100 94 94 90 90 87
87 90 94 97 97 97 97 97 94 94 94 94 94 94 94 97 97 97 97 94 94 90 84 77 77 81 90 94 94 90 84 68 16 39 52 90 100 100 97 94 90 87 87
84 87 87 90 94 97 97 97 94 94 94 94 97 97 97 97 97 90 94 94 84 77 77 81 74 81 87 87 94 97 90 61 16 23 61 94 100 100 97 94 87 87 90
84 81 84 81 81 87 90 97 90 90 90 94 97 97 97 84 90 87 87 81 74 71 74 74 68 77 84 87 90 90 61 23 19 39 71 94 100 100 94 94 94 90 81
77 77 77 81 81 77 87 81 84 87 84 77 77 77 61 48 58 81 84 84 68 71 71 65 71 68 32 32 74 55 23 23 26 39 71 94 100 100 100 100 94 90 90
74 77 77 77 77 77 77 77 77 68 61 55 58 48 29 26 39 39 52 58 45 45 42 45 39 23 19 13 13 13 19 26 29 39 77 97 97 94 97 100 94 87 87
65 74 77 77 68 71 68 74 65 55 48 48 32 19 13 16 19 16 13 23 23 19 19 16 10 3 0 6 6 13 16 16 29 45 71 100 97 94 90 87 94 94 90
52 68 68 71 68 48 39 58 61 45 48 29 23 16 13 10 10 6 10 10 10 3 0 0 0 0 0 3 3 13 19 26 32 39 71 94 97 94 94 84 87 87 90
42 48 55 55 39 32 29 35 35 32 23 23 26 23 13 6 3 3 3 3 0 0 0 0 0 0 0 0 3 6 13 26 39 42 55 84 94 97 94 90 84 87 87
23 32 39 32 23 19 19 19 19 19 16 16 16 16 16 6 3 3 3 3 0 0 0 0 0 0 0 0 0 0 3 19 29 39 52 68 77 90 94 90 87 90 84
16 16 16 19 10 10 10 13 10 10 10 10 13 13 16 3 3 3 3 3 0 0 0 0 0 0 0 0 0 0 0 3 19 29 45 55 68 74 84 84 87 84 74
16 3 10 6 3 6 6 3 3 6 6 3 3 6 6 6 3 3 3 0 0 0 0 0 0 0 0 0 0 0 0 0 3 10 26 35 48 52 61 68 77 74 71
6 6 6 0 0 6 3 3 3 3 0 0 0 3 3 3 3 3 3 0 0 0 0 0 0 0 0 0 0 0 0 0 0 0 3 16 19 23 29 42 58 55 58
6 6 3 0 0 6 3 3 3 3 3 0 0 3 3 3 3 0 3 0 0 0 0 0 0 0 0 0 0 0 0 0 0 0 0 3 13 13 19 23 29 39 45
16 6 0 3 3 3 3 3 3 3 3 3 0 3 3 3 0 0 0 0 0 0 0 0 0 0 0 0 0 0 0 0 0 0 0 0 3 3 6 6 16 23 19
13 10 6 3 3 3 3 3 0 0 0 0 0 3 3 0 0 0 0 0 0 0 0 0 0 0 0 0 0 0 0 0 0 0 0 0 0 0 0 6 6 10 10
13 13 6 3 3 3 3 3 3 3 3 0 0 0 0 0 0 0 0 0 0 0 0 0 0 0 0 0 0 0 0 0 0 0 0 0 0 0 0 0 3 3 6
16 13 10 3 3 6 6 3 3 3 3 0 0 0 0 0 0 0 0 0 0 0 0 0 0 0 0 0 0 0 0 0 0 0 0 0 0 0 0 0 0 0 0
10 6 10 6 10 6 3 3 3 3 3 0 0 0 0 0 0 0 0 0 0 0 0 0 0 0 0 0 0 0 0 0 0 0 0 0 0 0 0 0 0 0 0

GEFSSE_con_cape1000_132.txt.gz
Probability
23 58 97 100 100 100 100 100 100 100 100 100 100 100 100 100 97 97 97 97 97 87 87 81 90 94 94 94 97 97 94 94 100 97 94 97 90 90 90 84 87 71 90
45 71 97 100 97 100 100 100 100 100 100 100 100 100 100 97 97 97 94 97 100 90 94 94 97 94 90 97 97 97 94 97 100 97 97 94 94 97 90 94 94 77 90
58 77 97 97 97 100 97 97 100 100 100 100 100 100 97 97 97 97 94 94 90 87 90 90 97 94 87 94 97 97 100 97 97 94 94 74 77 84 90 94 97 94 90
65 74 84 97 97 97 97 97 97 97 97 100 100 100 97 97 97 97 90 94 87 87 90 90 94 94 94 97 97 97 97 90 81 77 48 55 61 84 94 94 94 94 90
61 84 97 97 97 97 97 97 97 97 97 97 100 100 100 100 100 97 97 97 87 87 87 87 90 87 94 97 97 97 87 81 55 35 48 58 87 94 94 90 87 90 94
71 81 97 97 97 97 97 97 97 97 94 94 94 97 97 97 97 97 97 97 94 94 84 90 81 84 94 97 94 94 81 65 48 19 35 52 87 94 90 94 94 90 94
65 84 97 97 97 97 97 97 97 94 94 94 94 94 97 97 97 97 97 97 97 94 87 90 87 87 94 94 90 90 84 45 10 16 48 65 90 94 90 94 94 90 90
68 84 94 94 94 97 97 97 94 94 94 94 94 94 94 94 97 97 97 94 94 90 87 94 90 87 97 87 87 90 77 55 10 3 35 77 100 100 90 94 94 94 94
71 84 94 94 94 94 94 90 90 94 94 94 94 94 97 94 97 97 97 94 97 94 90 90 87 87 90 90 94 90 68 48 13 19 19 84 97 97 94 90 94 94 97
84 84 90 84 90 87 90 90 94 94 94 94 94 94 94 94 94 94 97 97 90 84 77 87 81 74 87 94 94 90 71 48 13 10 42 77 100 100 87 90 87 94 94
94 84 84 81 81 77 77 84 94 90 90 90 90 90 94 87 90 90 84 87 81 81 84 81 84 74 84 87 90 87 71 23 13 13 45 94 97 94 81 87 90 90 97
87 84 81 81 81 77 74 84 84 87 87 87 90 87 84 87 87 81 84 87 84 84 81 81 81 65 68 74 68 74 65 32 23 23 81 94 90 90 90 90 84 81 94
87 87 81 81 84 84 84 84 84 87 87 87 84 84 84 77 87 77 87 87 87 77 68 65 45 42 52 68 61 48 45 35 42 29 77 94 87 84 94 97 84 81 84
84 81 81 77 84 87 84 84 84 84 87 87 87 81 81 84 77 74 77 84 77 68 65 39 58 48 45 55 52 58 58 48 48 52 97 90 87 90 87 84 90 90 84
84 84 81 77 77 90 87 81 81 87 81 77 90 81 74 61 68 61 71 74 48 52 55 48 45 55 48 52 39 58 55 61 52 39 94 84 84 87 81 74 81 84 84
74 81 81 74 71 87 90 90 84 84 90 71 74 68 61 55 61 55 65 68 48 39 39 39 35 58 48 52 45 52 61 52 68 61 71 87 84 84 74 77 74 77 74
71 71 77 71 71 87 90 84 87 90 74 68 74 71 65 55 68 48 45 48 39 35 48 39 39 39 45 42 45 55 55 58 45 55 45 68 77 84 81 77 68 74 68
71 71 68 52 61 77 87 84 71 61 68 74 77 74 74 77 74 77 55 45 45 26 39 29 26 19 19 26 45 35 52 68 55 55 48 55 68 55 74 77 74 74 71
65 68 68 52 65 74 77 84 71 77 77 65 71 74 71 65 61 52 55 55 35 29 32 23 26 13 19 29 26 39 26 39 61 19 39 39 52 61 71 77 74 77 65
61 68 68 65 65 68 61 71 68 68 65 61 68 74 71 61 55 42 48 39 26 29 35 32 29 29 29 39 6 13 19 16 23 29 19 26 35 35 32 42 65 61 61
58 65 65 74 68 74 58 55 58 58 58 58 74 61 61 61 52 61 26 45 35 32 29 19 26 26 23 26 23 19 16 13 13 39 32 39 23 32 32 45 45 42 58
65 58 58 65 65 52 55 71 61 58 55 48 52 61 61 55 58 35 35 29 35 39 32 29 29 19 19 16 16 16 6 6 19 6 23 23 19 29 13 10 23 45 29
52 61 48 58 52 52 61 61 48 55 55 39 45 52 45 52 55 39 26 26 26 23 26 42 35 32 19 16 13 6 10 6 6 0 10 10 19 19 16 23 19 35 32
58 65 61 61 58 68 71 45 35 35 35 45 48 42 45 42 35 29 29 32 39 26 29 23 10 16 23 10 13 16 13 6 6 16 10 3 6 13 3 0 3 13 26
58 61 65 65 68 65 58 58 52 35 45 42 35 42 48 45 32 29 26 29 35 35 19 16 13 19 10 16 13 3 3 3 0 16 10 6 3 0 0 0 3 3 6
58 55 58 61 68 61 48 45 48 45 39 35 48 39 45 48 48 32 26 29 32 19 26 26 23 19 23 23 19 6 13 6 10 6 3 3 10 3 3 6 0 0 3

GEFSSE_con_cape1000_138.txt.gz
Probability
48 68 100 100 100 100 100 100 100 100 100 100 100 100 100 100 100 100 100 90 87 90 90 94 90 84 87 94 90 90 90 97 97 100 100 90 94 94 94 100 90 74 87
52 87 100 100 100 100 100 100 100 100 100 100 100 100 97 97 97 100 97 97 94 97 100 100 94 94 90 90 90 90 97 97 100 97 94 90 87 94 94 94 94 77 90
58 90 100 100 100 100 100 100 100 97 97 100 100 100 97 97 97 97 97 94 94 94 100 97 94 94 90 90 90 90 97 94 94 94 87 58 84 90 97 97 97 87 90
61 74 97 100 100 100 100 97 97 97 97 97 100 100 97 97 97 97 90 90 97 100 97 94 94 97 97 94 84 87 84 84 81 90 55 26 65 87 94 94 84 81 87
55 87 97 100 100 100 97 97 97 97 97 97 97 100 100 100 97 94 100 100 97 97 94 90 94 100 94 87 87 77 77 65 55 68 39 52 77 94 90 87 84 87 87
74 90 97 97 97 97 97 97 97 97 97 94 94 94 94 97 100 97 100 97 94 97 94 94 90 97 97 87 68 61 58 55 68 29 68 65 77 94 90 87 84 87 84
77 90 97 97 97 97 97 97 97 90 94 94 94 94 94 97 97 94 97 100 97 97 94 90 90 97 94 77 65 52 61 65 71 52 74 81 81 94 94 84 84 87 87
77 74 94 97 97 94 94 94 90 90 94 94 94 94 94 94 97 97 97 97 97 97 94 94 87 90 94 71 61 52 61 77 71 45 65 61 94 94 90 87 87 87 87
81 81 90 94 94 94 94 90 90 90 90 94 94 94 94 94 94 94 97 97 97 97 97 90 81 90 87 65 48 48 71 84 55 55 23 61 97 94 87 90 90 90 90
87 81 84 81 94 90 87 87 90 90 90 94 94 94 94 94 94 94 97 97 94 87 90 87 84 81 84 65 52 48 68 68 26 39 26 81 100 100 90 90 90 97 94
90 87 77 77 84 77 77 84 84 84 87 90 90 90 90 90 90 94 90 94 84 90 87 84 84 81 84 68 58 58 58 42 19 35 39 100 100 100 90 90 90 94 90
94 81 84 84 81 77 74 81 84 81 84 87 90 90 90 90 90 87 90 84 81 84 84 81 87 81 74 45 61 58 52 42 35 39 65 100 100 97 90 87 90 97 94
84 81 77 77 81 77 81 81 81 84 84 87 87 87 87 90 87 90 87 84 87 74 68 71 81 61 65 68 48 65 58 45 29 29 90 100 100 97 97 94 84 90 94
84 81 77 84 84 84 84 84 84 84 84 87 87 87 87 87 84 84 94 87 90 84 87 71 87 74 68 68 71 65 61 58 42 48 90 100 100 97 94 97 87 84 87
81 81 77 74 81 87 87 87 81 84 84 87 84 84 87 84 84 84 87 87 81 84 90 84 90 84 77 77 77 65 68 71 68 52 71 94 94 100 94 81 77 68 74
77 81 77 81 81 81 84 90 87 81 77 81 84 87 81 87 87 84 87 87 84 87 87 87 90 90 81 97 90 84 77 77 87 65 61 81 94 94 90 87 71 77 74
77 74 68 71 77 77 77 90 84 84 81 81 87 90 84 84 87 94 90 87 87 84 81 90 87 90 90 90 87 74 84 74 77 81 68 65 74 87 90 84 87 87 74
77 74 68 65 68 81 81 87 81 77 81 81 84 90 87 87 87 97 87 87 87 84 90 94 87 84 84 94 97 87 94 84 68 74 84 84 68 45 77 84 84 81 74
77 77 74 81 77 74 77 87 81 81 87 68 81 81 87 90 84 87 87 87 81 77 77 45 84 87 81 87 71 90 87 90 81 58 71 81 77 77 61 74 84 84 77
74 71 71 77 68 77 77 84 81 81 87 84 77 81 81 90 84 81 77 71 71 74 71 81 77 84 81 74 32 35 74 77 87 77 65 68 77 68 71 48 68 74 81
77 68 74 71 65 71 77 74 68 68 81 81 77 71 74 77 81 81 74 65 71 74 68 61 61 58 65 68 68 45 65 61 68 81 71 61 52 68 65 65 65 58 48
71 65 71 74 74 71 81 77 71 74 77 81 81 81 81 68 74 65 74 65 61 81 61 58 68 71 61 71 61 32 29 32 61 16 65 65 52 58 65 55 71 90 61
65 65 65 71 74 81 77 71 61 71 74 71 74 81 81 71 65 65 65 61 74 65 68 61 61 58 71 65 58 52 26 23 19 55 42 48 58 52 45 48 61 68 71
61 71 77 77 77 81 84 74 58 61 61 71 77 77 81 71 58 61 55 58 58 65 77 68 61 65 65 52 61 68 48 45 26 16 32 29 42 58 35 26 13 45 48
61 65 74 81 81 87 81 84 74 65 58 58 74 81 71 74 58 58 65 61 61 74 68 65 71 58 58 55 55 55 35 45 32 23 6 19 19 35 39 42 26 32 45
65 71 74 81 84 87 81 81 81 71 68 68 68 68 68 74 68 58 58 65 65 65 68 55 55 48 58 65 68 55 42 42 23 19 19 23 26 32 32 39 23 39 35

GEFSSE_con_cape1000_144.txt.gz
Probability
77 100 100 100 100 100 100 100 100 97 97 100 100 100 100 100 100 100 100 100 100 100 100 97 94 94 94 97 97 97 90 90 94 94 97 100 100 94 90 87 77 65 87
87 100 100 100 100 100 100 100 100 100 100 100 100 100 100 100 100 100 100 100 100 97 97 94 94 94 94 97 94 97 97 100 100 100 100 97 100 97 94 90 84 74 90
94 100 100 100 100 100 100 100 100 100 100 100 100 97 100 100 100 100 100 100 100 97 97 94 97 94 94 100 100 97 97 97 90 94 87 58 90 94 94 90 90 87 90
94 97 100 100 100 100 100 100 100 100 100 100 100 97 97 100 100 100 100 100 100 100 94 97 97 94 90 90 97 94 94 94 87 71 10 26 58 87 90 90 90 90 87
90 97 100 100 100 100 100 100 100 100 100 100 100 100 100 100 100 100 100 100 100 100 97 97 90 87 84 84 90 94 90 90 87 35 13 19 52 90 84 90 90 87 84
87 97 100 100 100 100 100 100 100 100 100 100 100 100 100 100 100 97 100 100 97 97 97 97 94 87 81 94 84 90 87 84 42 3 10 26 61 90 84 84 87 87 87
87 94 100 100 100 100 100 100 100 100 97 97 97 100 100 100 100 100 97 100 97 97 94 94 87 81 84 87 77 81 84 77 6 3 6 32 81 94 81 84 87 87 84
90 90 100 100 100 97 97 97 97 97 94 94 94 94 94 94 97 97 100 100 97 97 94 94 87 87 81 77 84 81 84 74 19 6 13 35 87 87 87 84 84 87 87
84 87 90 97 97 97 97 97 94 94 94 94 94 94 94 94 94 94 100 100 97 97 94 87 84 74 81 71 74 90 81 74 0 6 29 68 97 97 94 87 87 84 87
84 87 87 87 94 94 94 94 94 94 94 94 94 94 94 94 94 94 97 100 97 94 84 77 71 65 71 71 71 84 77 45 3 6 16 77 100 97 87 84 87 90 84
77 81 81 84 81 87 87 87 87 94 94 94 94 97 94 87 87 97 97 97 94 84 81 71 65 65 65 71 81 84 39 6 3 10 26 90 100 97 97 90 87 90 94
61 61 74 74 71 71 81 77 77 84 84 84 87 87 61 45 48 84 94 97 87 74 77 77 74 74 39 23 35 29 6 3 3 10 52 94 100 97 94 90 94 90 90
52 58 65 68 65 61 68 68 65 68 74 68 68 61 48 52 52 45 58 74 68 61 42 61 48 32 26 13 6 6 0 3 3 19 77 97 100 97 97 90 94 94 87
39 48 61 61 58 58 61 65 61 55 58 52 52 45 39 42 32 35 35 32 32 29 19 26 26 16 16 10 3 3 6 0 6 19 74 100 100 97 100 100 100 94 87
42 39 45 45 52 45 55 48 58 55 42 39 45 45 42 29 26 23 19 19 23 16 13 16 6 10 0 3 3 6 10 3 6 19 55 100 100 100 97 97 94 90 87
29 35 29 35 29 35 35 35 39 35 35 35 35 39 39 32 26 26 23 16 13 10 10 10 0 0 0 0 6 6 3 3 0 10 32 74 100 100 100 100 90 84 84
35 42 32 35 42 32 32 35 32 35 39 35 35 39 26 29 23 23 16 10 6 6 6 3 0 0 0 0 0 0 0 3 0 6 32 45 68 97 100 100 94 81 81
42 39 35 39 32 26 23 23 19 26 35 29 26 26 29 19 19 16 13 6 6 6 3 0 3 3 0 0 0 0 0 3 0 6 13 32 35 58 90 100 94 97 94
42 35 39 35 23 26 19 19 23 19 26 23 26 26 19 16 23 16 10 6 3 3 3 0 3 0 0 0 0 0 0 0 0 3 6 10 10 19 32 71 94 97 87
45 42 29 29 26 23 19 23 16 13 10 19 19 16 16 19 19 6 3 6 6 3 0 0 0 0 0 0 0 0 0 0 0 0 3 0 6 10 6 29 48 74 87
45 35 29 29 23 19 16 13 16 13 13 19 13 16 13 16 23 10 10 6 6 6 0 0 0 0 0 0 0 0 0 0 0 0 0 0 0 6 6 6 10 16 32
42 29 26 29 19 19 16 10 10 10 13 6 10 13 13 13 13 16 6 6 3 0 0 0 0 0 0 0 0 0 0 0 0 0 0 0 0 0 3 3 0 3 0
39 39 29 23 23 13 13 6 6 10 3 3 10 13 16 16 16 10 6 6 3 0 0 0 0 0 0 0 0 0 0 0 0 0 0 0 0 0 0 3 3 0 3
45 42 35 23 16 10 13 16 6 10 3 3 0 0 6 10 13 6 6 6 3 3 0 0 0 0 0 0 0 0 0 0 0 0 0 0 0 0 0 0 0 0 0
45 39 35 29 23 16 23 13 10 3 3 3 0 0 0 0 10 3 3 3 0 0 0 0 0 0 0 0 0 0 0 0 0 0 0 0 0 0 0 0 0 0 0
39 39 39 39 23 23 23 16 10 3 6 3 0 0 0 0 3 3 6 3 0 0 0 0 0 0 0 0 0 0 0 0 0 0 0 0 0 0 0 0 0 0 0

GEFSSE_con_cape1000_150.txt.gz
Probability
52 94 100 100 100 100 100 100 100 100 100 100 100 100 100 100 100 100 100 100 97 94 94 81 87 87 87 94 87 87 90 90 90 97 90 87 87 84 77 84 65 58 77
71 94 100 100 100 100 100 100 100 100 100 100 100 100 100 100 100 100 100 100 100 94 90 87 90 94 90 94 94 94 94 97 97 97 97 90 87 87 81 68 61 65 74
87 94 100 100 100 100 100 100 100 100 100 100 100 100 100 100 100 100 100 100 100 97 90 90 94 97 100 100 97 97 94 100 100 100 90 81 81 77 77 77 74 81 81
90 90 90 100 100 100 100 100 100 100 100 100 100 100 100 100 100 100 100 97 97 100 97 97 94 90 97 100 100 97 94 100 97 81 45 58 55 84 90 84 87 84 84
90 90 97 100 100 100 100 100 100 100 100 100 100 100 100 100 100 100 100 97 97 100 97 97 90 94 94 94 94 94 94 87 84 42 29 39 77 90 90 84 87 87 84
90 90 97 97 100 100 100 100 100 100 100 100 100 100 100 100 100 100 97 97 97 97 94 94 90 90 94 94 90 84 84 87 39 19 32 58 77 90 87 81 84 87 84
90 90 97 97 97 97 100 100 100 100 100 100 100 100 100 100 100 100 100 97 97 100 97 94 97 94 87 94 87 87 87 74 16 16 39 58 81 87 87 81 84 84 87
90 94 97 97 100 97 100 100 100 100 100 100 100 100 100 100 100 100 100 94 94 87 90 94 87 97 100 94 87 81 87 65 19 16 32 61 87 84 81 87 84 81 84
84 87 87 97 97 97 97 97 100 100 97 97 97 97 97 97 100 100 100 94 87 87 90 87 84 94 94 90 84 81 84 65 10 19 32 65 87 81 71 77 81 81 71
84 84 84 87 90 90 97 97 94 94 94 94 97 97 97 97 94 97 97 97 87 84 84 84 84 84 84 84 84 81 87 52 13 13 45 68 94 84 74 77 84 77 84
81 81 81 84 84 84 84 90 94 94 94 94 94 94 94 74 90 97 94 90 87 77 74 84 71 74 74 84 90 84 58 10 19 19 55 87 94 77 74 84 87 84 81
77 77 74 74 74 81 84 81 87 90 90 90 87 71 52 48 58 84 90 84 77 81 74 81 84 58 45 39 68 45 13 6 23 32 58 90 94 81 81 81 87 90 84
65 77 77 71 68 71 68 71 65 65 61 61 58 52 35 35 45 45 52 61 48 52 35 42 23 19 26 16 10 10 10 6 26 39 65 87 87 81 77 81 77 87 84
58 71 71 68 65 58 58 61 48 48 52 55 45 42 32 26 26 29 29 32 29 26 19 19 16 16 13 13 10 13 16 10 16 39 68 87 87 90 81 84 77 68 77
45 55 65 65 55 48 48 52 48 42 52 39 26 32 35 23 23 23 23 19 16 13 16 13 13 13 3 6 10 10 13 10 10 32 65 81 90 90 84 71 77 74 68
32 45 55 52 42 39 39 42 45 42 39 29 29 26 29 16 10 19 16 10 10 6 6 13 10 3 0 0 6 10 13 13 16 23 45 77 90 94 97 87 74 71 58
19 26 35 29 26 32 39 26 29 32 26 23 23 26 26 16 10 13 10 3 10 3 3 3 0 0 0 0 0 3 3 13 13 19 32 55 74 84 97 94 90 84 71
3 6 16 29 23 26 23 23 19 23 23 19 19 16 23 13 10 6 10 10 3 3 0 0 0 0 0 0 0 0 3 3 13 16 19 32 52 65 77 97 94 90 81
3 3 6 19 19 16 16 13 13 10 10 10 10 10 10 16 13 6 6 3 3 0 0 0 0 0 0 0 0 0 0 0 3 13 13 23 35 39 42 55 87 90 81
6 10 3 6 6 10 10 3 0 6 6 6 10 10 10 6 6 6 3 0 0 0 0 0 0 0 0 0 0 0 0 0 0 0 6 10 16 23 26 26 55 58 71
10 10 3 3 0 3 10 0 0 0 6 6 3 3 3 6 6 6 3 0 0 0 0 0 0 0 0 0 0 0 0 0 0 0 0 0 0 6 23 26 29 32 45
13 10 3 0 0 0 3 0 0 0 3 3 3 3 6 6 6 6 3 0 0 0 0 0 0 0 0 0 0 0 0 0 0 0 0 0 0 0 3 3 13 16 26
26 13 13 0 0 0 3 3 0 0 0 3 3 3 6 6 6 3 0 0 0 0 0 0 0 0 0 0 0 0 0 0 0 0 0 0 0 0 0 0 3 10 6
29 16 16 6 6 3 3 3 3 3 6 0 0 0 0 6 6 0 0 0 0 0 0 0 0 0 0 0 0 0 0 0 0 0 0 0 0 0 0 0 3 3 6
29 16 16 3 6 6 3 6 3 6 0 0 0 0 0 3 3 0 0 0 0 0 0 0 0 0 0 0 0 0 0 0 0 0 0 0 0 0 0 0 0 0 0
32 29 13 10 13 6 10 10 6 6 0 0 0 0 0 0 0 0 0 0 0 0 0 0 0 0 0 0 0 0 0 0 0 0 0 0 0 0 0 0 0 0 0

GEFSSE_con_cape1000_156.txt.gz
Probability
6 29 97 100 100 100 97 100 97 100 100 100 100 100 100 100 100 97 97 90 90 90 90 84 87 84 87 87 87 87 87 87 84 81 84 84 84 84 74 65 68 52 74
19 52 100 100 100 100 100 100 100 100 100 100 100 100 100 100 100 100 94 94 94 87 90 87 90 90 87 90 87 90 87 84 87 84 84 84 81 74 65 65 71 68 74
32 58 90 100 100 100 100 100 100 100 100 100 100 100 100 100 100 100 97 97 97 87 94 90 90 87 100 97 94 94 90 100 90 84 81 68 74 74 77 81 77 74 74
39 61 81 100 100 100 100 100 100 100 100 100 100 100 100 100 100 97 97 97 97 97 97 94 90 94 94 94 100 100 97 87 84 68 52 52 45 68 77 81 77 71 81
48 71 94 100 100 100 100 100 100 100 100 100 100 100 100 100 97 97 97 97 97 100 97 97 100 94 94 94 97 97 90 74 58 32 39 65 74 77 81 81 74 77 87
58 68 94 100 97 97 100 100 100 100 100 100 100 100 97 97 97 97 97 97 100 100 100 94 87 84 90 97 94 90 74 61 39 23 35 58 74 77 84 81 77 81 84
48 68 87 97 97 97 97 100 100 100 100 100 100 97 97 97 97 97 94 94 100 94 90 94 90 87 87 90 87 84 68 39 23 19 42 55 77 87 84 84 84 87 77
48 71 87 94 97 97 97 100 97 100 100 100 100 100 97 97 97 94 94 97 87 90 90 94 90 90 81 81 77 77 55 42 13 10 29 58 84 87 81 84 84 90 74
42 71 84 84 94 97 97 97 97 97 97 100 100 100 97 97 97 94 94 87 87 90 94 90 84 87 71 71 77 81 48 32 6 13 16 61 77 81 81 84 87 77 77
65 68 74 71 87 90 94 97 97 97 97 94 94 94 97 97 97 94 97 94 87 84 87 87 81 81 81 74 77 71 45 29 0 3 29 48 81 68 61 81 77 65 68
77 74 74 74 81 87 84 87 97 94 94 94 94 94 94 94 84 87 77 84 77 81 84 84 84 77 74 81 74 77 55 19 6 6 35 68 81 68 68 71 68 65 58
74 84 87 84 94 74 81 90 94 90 94 87 94 90 94 94 87 77 74 81 77 71 77 84 77 68 61 58 65 74 39 23 13 13 48 84 74 65 65 65 68 68 68
77 81 81 87 84 74 90 90 90 94 97 90 90 87 87 84 84 87 81 84 87 71 65 55 48 39 35 55 55 42 29 23 23 19 48 65 74 68 55 68 71 71 71
77 81 84 84 84 87 77 81 87 90 90 84 94 84 81 84 81 84 87 68 71 77 77 42 55 48 52 52 52 42 35 32 23 48 90 68 77 68 58 61 58 58 68
77 77 84 84 87 87 94 81 74 84 77 74 87 84 77 77 84 77 81 77 55 61 65 61 52 65 58 61 52 45 39 35 16 16 74 81 84 77 71 61 55 35 52
81 84 81 84 84 81 84 87 81 68 90 68 68 74 71 58 74 74 71 68 52 45 48 55 52 61 55 61 55 48 42 23 32 29 39 71 77 81 71 58 52 45 45
74 74 77 74 71 74 71 68 68 61 61 58 61 68 74 68 71 71 55 55 48 55 61 48 52 45 48 45 45 39 35 39 45 32 32 52 61 71 74 61 58 58 52
71 81 68 48 58 71 65 71 55 55 52 58 61 68 68 68 68 68 58 26 45 45 45 52 32 39 39 39 42 42 39 58 42 42 29 32 45 42 61 74 74 74 55
74 68 65 58 58 58 61 81 74 58 68 65 55 58 68 71 61 58 48 48 42 35 45 42 39 35 35 42 32 48 29 32 42 16 23 23 32 32 48 77 84 77 68
71 68 58 58 68 65 61 68 68 68 58 55 71 68 68 65 55 52 52 55 45 39 52 52 55 52 42 42 6 19 26 19 26 26 23 26 32 29 32 35 55 65 61
71 61 58 68 65 68 65 68 74 61 58 58 55 65 68 65 52 65 29 48 52 45 45 35 39 32 35 29 35 29 23 16 19 39 35 26 16 32 35 42 48 58 55
61 58 55 55 61 61 71 74 71 68 52 68 52 58 68 61 61 45 52 39 45 65 55 48 52 45 26 29 23 16 19 29 39 6 32 42 29 35 29 32 52 65 45
58 58 42 48 58 71 65 65 58 61 65 65 61 65 65 58 58 55 52 42 48 35 39 52 52 45 39 29 26 10 10 16 16 10 23 26 42 45 26 26 35 48 52
55 48 61 55 65 65 65 55 65 52 58 61 71 74 68 61 58 52 48 55 68 48 58 45 35 45 48 39 35 42 23 16 19 26 16 6 26 35 26 16 19 42 52
52 55 55 61 68 68 68 68 65 65 65 65 71 71 71 65 58 45 52 58 65 52 45 52 55 48 42 39 35 29 26 32 16 26 13 13 13 16 19 26 29 29 35
58 48 55 58 61 68 68 65 71 71 71 68 84 74 77 68 74 52 52 55 58 42 55 61 58 55 55 48 52 32 35 29 23 23 16 26 16 16 13 16 16 29 26

GEFSSE_con_cape1000_162.txt.gz
Probability
42 71 94 94 97 97 94 94 97 97 97 97 100 100 97 97 97 87 94 90 90 90 87 84 90 90 84 87 87 90 94 90 84 84 87 84 81 77 81 81 74 52 81
52 74 97 97 97 97 94 94 97 100 100 100 100 100 100 100 97 97 94 90 87 84 87 87 87 87 90 94 87 84 90 84 84 77 81 74 74 81 81 81 68 68 77
52 74 90 97 100 100 100 97 97 100 100 100 100 100 100 94 94 94 94 94 97 97 94 94 100 90 90 94 90 87 84 84 81 84 81 42 65 81 84 84 77 77 77
52 65 90 100 100 100 100 97 100 100 100 100 100 100 100 100 100 100 97 94 97 100 100 97 97 87 87 90 87 81 81 77 71 74 45 35 32 74 74 81 81 77 74
42 90 100 100 100 100 100 100 100 100 100 100 100 100 100 100 100 100 97 97 100 100 100 94 90 87 84 84 74 68 71 58 65 68 39 48 55 74 74 77 81 81 77
74 81 97 100 100 97 100 100 97 97 97 97 100 97 100 100 97 97 97 100 100 97 97 94 90 90 81 74 68 61 55 58 65 42 52 55 61 74 77 81 84 84 81
68 74 94 94 100 100 100 100 97 97 97 97 97 100 97 97 100 97 100 100 90 90 97 97 90 97 87 71 61 48 48 68 55 42 55 61 71 81 74 81 74 84 81
71 74 94 94 97 100 100 100 97 97 97 97 97 100 97 100 100 97 97 90 87 90 97 90 87 84 84 58 48 32 42 71 45 42 39 42 81 90 77 81 77 87 84
71 77 84 94 97 100 100 100 97 97 97 97 97 100 97 97 100 94 97 87 87 87 87 81 74 84 74 52 39 45 68 94 45 39 29 45 84 90 90 84 81 74 77
77 74 77 87 94 100 100 100 100 100 97 97 97 97 97 94 97 90 94 94 87 84 74 71 65 71 61 45 45 52 61 65 19 26 26 58 94 84 77 84 77 77 74
84 74 68 81 84 90 97 94 97 100 97 97 94 90 97 94 84 84 90 94 81 71 71 71 71 65 74 42 42 61 61 35 23 16 32 74 90 71 65 74 71 68 71
77 84 81 84 84 87 77 97 100 84 94 94 94 94 94 100 97 74 94 97 81 71 65 74 77 74 68 55 48 65 48 35 29 23 39 97 87 68 61 65 61 61 52
71 84 84 81 84 87 94 97 97 94 97 94 94 97 97 94 87 74 77 81 87 77 74 74 74 68 58 65 55 55 61 26 16 26 55 94 90 58 55 55 58 61 61
68 81 84 90 81 90 90 84 87 90 87 94 94 90 97 90 90 81 87 90 90 87 97 87 87 87 84 81 71 58 48 42 35 32 61 90 90 74 52 55 55 55 52
81 77 87 97 97 94 94 84 84 87 87 94 94 97 94 94 87 87 84 87 81 90 94 90 87 90 84 84 65 52 52 65 42 32 45 87 84 71 58 48 55 58 39
87 87 87 94 97 94 87 90 94 81 87 84 90 87 90 90 94 90 84 87 90 87 87 90 87 90 84 84 81 77 65 42 61 61 42 74 87 74 68 45 42 48 48
87 87 94 94 94 90 81 81 81 84 68 84 87 90 77 87 87 90 94 94 94 87 87 87 81 84 81 77 77 77 77 68 61 68 45 48 52 74 77 65 55 48 55
84 90 87 65 90 87 77 81 77 58 74 84 90 84 87 87 87 94 94 94 90 87 87 87 84 77 81 77 81 77 81 81 71 68 65 71 61 32 74 77 74 65 58
81 81 81 74 81 81 77 81 84 84 84 87 90 87 84 84 84 90 94 90 81 84 84 61 87 74 84 81 68 68 77 81 77 48 58 58 74 61 42 55 87 84 61
84 81 77 74 84 81 74 84 84 81 81 90 90 94 84 84 84 90 87 94 74 84 84 81 71 77 81 77 32 35 65 74 77 71 58 55 68 61 48 45 42 52 81
81 74 81 81 87 84 84 84 87 74 87 90 90 84 81 77 84 87 90 90 90 94 87 74 65 61 77 77 52 45 71 58 58 74 81 68 39 42 52 55 42 45 29
77 81 74 71 77 77 77 77 77 81 77 84 84 81 81 84 81 52 90 90 90 90 87 71 71 77 74 68 68 39 32 42 71 29 68 71 45 45 45 39 74 81 52
77 71 65 71 71 71 71 71 74 74 71 77 81 84 77 87 87 81 87 90 87 87 87 81 77 71 65 77 71 55 16 16 35 61 58 45 68 71 52 45 61 65 58
74 68 65 68 68 65 68 77 74 65 68 74 87 87 84 84 84 84 74 84 87 84 84 81 71 81 81 61 77 58 65 48 35 26 39 39 52 61 48 29 42 48 58
81 65 58 61 65 65 74 77 84 74 84 84 87 84 90 90 87 87 87 81 84 84 81 74 77 81 84 74 71 68 61 65 48 32 13 16 35 48 52 58 48 52 52
71 68 68 68 68 71 71 74 77 77 77 84 81 84 87 90 84 84 90 87 87 90 87 87 77 71 77 71 68 58 58 48 42 32 16 16 19 26 39 45 48 45 55

GEFSSE_con_cape1000_168.txt.gz
Probability
61 90 100 100 100 100 97 97 97 100 100 100 100 100 100 100 97 97 100 100 100 97 97 94 90 97 94 94 94 94 97 94 87 90 87 77 74 87 87 84 71 55 77
71 90 100 100 100 100 97 97 97 100 100 100 100 100 100 100 97 100 100 100 100 100 94 90 94 94 94 94 90 94 94 90 90 94 87 77 84 84 84 84 68 52 77
84 87 97 100 100 100 100 100 100 100 100 100 100 100 100 100 100 100 100 100 100 97 97 97 94 94 94 90 90 87 94 87 90 84 71 39 71 87 87 94 81 77 81
77 84 94 100 100 100 100 100 100 100 100 100 100 100 100 100 100 100 100 100 97 100 100 100 97 90 90 87 84 81 81 81 58 55 23 26 35 77 84 87 81 81 81
77 81 90 100 100 100 100 100 100 100 100 100 100 100 100 100 100 100 100 100 100 97 94 94 94 84 77 77 77 74 74 77 61 29 13 19 35 81 81 77 74 87 84
84 90 97 100 100 100 100 100 100 100 100 100 100 100 100 100 100 100 100 97 94 97 94 90 84 81 68 68 68 81 81 71 32 19 19 26 42 81 77 81 84 84 81
84 94 97 100 100 100 100 100 100 100 100 100 100 100 100 100 100 100 100 100 100 100 90 87 84 81 74 71 68 77 74 61 13 13 16 29 52 87 87 84 77 74 74
84 90 97 100 100 100 100 100 100 100 100 100 100 97 100 100 100 100 100 100 100 90 84 84 84 81 74 77 77 74 71 58 32 13 13 32 77 90 84 84 87 84 77
84 90 97 100 100 100 100 100 100 100 100 100 100 100 100 100 97 97 97 100 90 87 84 84 74 61 65 68 77 77 71 52 3 6 16 32 84 87 77 87 87 87 84
71 77 87 90 97 100 100 100 100 100 100 100 100 100 100 97 97 97 97 100 87 81 74 71 74 58 61 65 68 81 71 45 0 6 16 65 87 81 81 84 94 87 84
58 65 74 81 81 84 94 100 100 100 100 100 100 100 94 68 74 84 90 87 74 65 65 68 55 52 52 55 71 71 42 0 3 6 16 77 94 81 87 84 81 81 77
52 55 58 68 65 71 87 87 81 94 87 74 74 71 42 39 42 74 90 87 71 65 68 65 65 61 52 16 23 39 6 6 6 6 32 94 97 84 81 84 71 74 71
39 52 52 58 58 61 65 71 65 61 58 61 42 42 32 29 39 39 48 61 48 52 35 48 48 35 23 3 3 0 0 0 0 10 39 94 94 84 74 74 68 68 65
32 35 39 48 52 35 42 58 61 45 48 55 35 32 26 23 19 13 23 19 16 16 10 10 6 0 0 3 3 3 3 0 0 6 35 90 94 84 71 68 55 48 65
29 32 32 42 32 29 32 45 45 35 32 42 35 26 23 19 13 13 19 19 16 13 16 13 3 0 0 6 3 6 3 3 10 6 16 81 90 87 77 65 71 48 39
32 35 32 39 29 26 26 29 32 29 16 26 26 29 26 13 13 10 10 6 16 16 6 13 6 6 6 0 3 3 3 3 10 10 6 55 90 97 90 74 58 52 52
35 32 35 32 23 23 19 19 29 19 19 19 13 16 13 16 6 6 6 6 6 6 6 3 6 3 3 0 0 0 0 3 3 6 6 6 23 87 94 84 71 68 61
32 42 42 42 39 32 32 23 16 16 16 19 13 16 13 16 13 6 6 3 3 3 3 0 3 3 0 0 0 0 0 0 0 0 3 3 10 16 61 84 81 81 65
39 35 39 45 35 35 32 23 23 23 13 13 6 13 13 16 10 6 0 3 0 3 3 0 0 0 0 0 0 0 0 0 0 0 3 0 0 0 6 39 81 84 74
45 39 42 45 32 32 29 23 19 23 10 10 13 10 6 10 13 10 6 0 3 3 3 0 0 0 0 0 0 0 0 0 0 0 0 0 0 0 0 3 26 52 71
42 39 42 42 29 29 26 23 19 16 19 13 6 13 13 10 10 10 13 0 3 3 3 0 0 0 0 0 0 0 0 0 0 0 0 0 0 3 3 0 0 3 13
42 35 32 35 29 32 29 26 19 10 13 0 6 10 13 10 10 10 10 0 3 0 0 0 0 0 0 0 0 0 0 0 0 0 0 0 0 0 0 0 0 0 0
52 35 32 35 26 26 26 26 23 6 10 6 3 6 10 6 6 10 0 3 3 0 0 0 0 0 0 0 0 0 0 0 0 0 0 0 0 0 0 0 0 0 0
45 48 29 32 26 23 23 19 19 10 3 3 0 3 3 6 6 10 0 6 3 0 0 0 0 0 0 0 0 0 0 0 0 0 0 0 0 0 0 0 0 0 0
48 45 42 29 26 26 23 19 19 10 3 3 3 0 0 3 6 6 3 3 0 0 0 0 0 0 0 0 0 0 0 0 0 0 0 0 0 0 0 0 0 0 0
52 52 42 39 32 32 29 23 19 19 10 6 0 3 3 0 0 10 10 0 0 0 0 0 0 0 0 0 0 0 0 0 0 0 0 0 0 0 0 0 0 0 0

GEFSSE_con_cape1000_174.txt.gz
Probability
26 81 94 90 97 97 100 100 100 100 97 97 100 100 100 100 100 100 100 100 94 90 94 97 87 90 94 94 87 84 84 81 84 84 74 74 77 81 84 87 68 45 81
55 84 94 97 100 100 100 100 100 100 100 100 100 100 100 100 100 97 97 94 90 87 87 90 90 90 87 87 90 87 87 87 90 90 87 71 68 81 81 81 61 48 74
77 87 94 100 100 100 100 100 100 100 100 97 100 100 100 100 97 94 94 97 90 90 90 90 87 87 90 90 87 87 77 84 81 81 65 55 71 71 71 71 81 77 71
77 81 94 100 100 100 100 100 100 97 97 97 97 100 100 100 97 100 97 97 97 94 90 87 81 81 77 90 87 81 74 74 65 48 42 45 55 74 74 77 84 81 77
74 84 97 100 100 100 100 100 100 97 97 97 100 100 100 100 100 100 97 94 94 94 90 87 81 74 74 81 71 77 77 74 61 35 26 42 61 84 77 71 87 87 84
71 81 97 100 100 100 100 100 100 100 97 100 100 100 100 100 100 97 97 97 90 94 94 87 81 81 77 71 74 74 74 58 29 19 29 45 65 77 84 84 77 84 81
71 84 97 97 100 100 100 100 100 100 100 97 100 100 100 100 100 97 97 97 94 94 90 81 74 81 74 68 81 77 77 48 19 19 29 45 74 84 94 87 84 74 77
74 87 97 97 100 100 100 100 100 100 100 97 100 100 100 100 100 100 97 97 90 87 87 77 74 74 77 81 81 77 71 29 23 23 29 39 81 81 77 81 81 71 77
81 87 94 97 97 100 100 100 97 100 100 100 100 97 97 97 97 90 94 94 90 81 84 77 74 77 81 81 81 77 68 48 10 26 29 55 81 87 81 90 77 74 65
68 74 81 81 87 87 97 100 100 97 100 100 100 94 97 90 87 87 97 94 87 81 77 74 77 84 84 81 77 65 58 29 10 13 32 65 81 84 77 74 77 77 74
58 58 61 68 74 81 90 97 90 90 97 97 97 97 84 65 68 81 87 87 77 71 71 74 84 81 77 81 77 71 35 6 10 23 35 68 74 77 74 74 77 71 71
55 58 58 61 65 74 90 77 71 77 65 61 55 48 39 32 45 74 87 84 68 68 65 81 74 58 23 23 48 39 3 3 10 26 35 71 74 71 68 71 74 61 61
42 55 58 52 58 55 52 61 58 52 35 39 35 35 26 19 23 35 39 52 48 48 26 35 29 19 6 6 10 10 6 10 16 19 35 74 81 68 74 71 71 61 52
29 45 48 48 45 39 35 52 42 39 29 26 26 19 19 13 19 26 13 23 19 16 13 16 13 3 3 3 6 10 10 6 10 13 42 61 77 74 68 61 65 58 45
26 39 39 39 42 32 26 39 35 19 13 16 23 16 16 13 13 6 10 10 10 6 6 3 3 3 0 3 6 10 10 13 10 16 35 58 74 84 68 65 55 52 45
16 23 19 35 35 26 19 13 19 13 16 16 16 16 16 10 10 6 3 6 0 3 3 0 0 3 6 6 10 3 10 6 10 16 16 45 68 81 77 58 45 42 39
10 16 6 23 23 16 13 10 13 6 6 10 6 13 13 10 6 6 0 0 0 0 3 0 0 3 6 0 0 3 3 6 3 10 10 19 48 65 71 65 61 52 45
19 10 10 23 16 10 6 6 3 6 6 6 6 6 10 10 6 0 0 0 0 0 3 0 0 0 3 0 0 0 0 0 3 6 6 13 16 29 52 74 77 65 58
13 13 0 0 10 10 6 3 3 3 3 3 6 6 6 10 10 0 0 0 0 0 3 3 0 0 0 0 0 0 0 0 0 0 6 6 6 10 16 26 74 71 61
10 6 0 0 3 6 6 0 3 3 3 3 6 6 6 10 3 0 0 0 0 0 3 0 0 0 0 0 0 0 0 0 0 0 3 3 3 6 6 6 23 55 68
13 10 3 0 6 10 6 3 3 3 3 3 3 6 6 3 3 0 0 0 0 0 3 0 0 0 0 0 0 0 0 0 0 0 0 3 3 3 0 0 6 13 16
13 16 13 3 6 10 10 10 3 3 3 3 3 3 3 0 0 3 0 0 0 0 0 0 0 0 0 0 0 0 0 0 0 0 0 0 3 0 0 0 3 3 3
16 16 23 6 10 10 10 6 3 3 3 0 3 3 3 0 0 0 3 0 0 0 0 0 0 0 0 0 0 0 0 0 0 0 0 0 0 0 0 3 3 3 3
26 19 16 13 16 13 6 13 10 6 6 3 0 3 3 0 0 0 0 0 0 0 0 0 0 0 0 0 0 0 0 0 0 0 0 0 0 0 0 0 0 3 3
23 23 16 16 10 10 6 10 10 10 0 0 0 0 0 0 0 0 3 0 0 0 0 0 0 0 0 0 0 0 0 0 0 0 0 0 0 0 0 0 0 0 0
32 29 16 13 16 13 10 10 10 10 0 0 0 0 0 0 0 0 3 0 0 0 0 0 0 0 0 0 0 0 0 0 0 0 0 0 0 0 0 0 0 0 0

GEFSSE_con_cape1000_180.txt.gz
Probability
13 29 90 97 97 97 100 97 97 100 100 100 100 100 100 100 100 100 90 90 90 84 90 90 84 87 81 81 68 74 68 74 74 74 74 71 71 74 74 65 65 45 81
16 26 94 97 97 100 100 100 100 100 100 100 100 100 100 97 97 94 81 84 87 84 81 84 90 87 77 74 77 77 77 77 74 81 77 68 65 68 65 61 68 65 81
26 29 81 100 100 100 100 100 100 100 100 100 100 100 100 94 94 94 87 84 84 90 84 84 87 84 77 74 77 81 81 81 81 81 77 61 55 77 74 68 71 81 81
26 39 77 100 100 100 100 100 100 100 100 100 100 97 94 97 97 97 94 94 94 84 84 81 84 90 84 77 81 87 81 81 61 61 45 39 45 68 81 71 71 74 77
32 55 100 100 100 100 100 100 100 100 100 100 100 97 100 97 97 97 100 94 90 87 84 81 81 74 81 81 74 74 74 52 48 29 29 45 58 81 81 81 81 84 81
39 55 94 100 100 100 100 100 100 97 97 100 100 97 100 90 94 97 97 97 90 90 84 87 74 74 71 77 74 74 58 48 42 23 29 39 45 84 87 87 84 84 74
42 55 84 100 100 100 100 97 97 97 97 100 100 100 100 97 97 94 90 90 94 90 81 84 87 81 74 77 74 61 45 42 19 13 26 42 74 87 81 84 84 81 71
52 61 87 100 100 100 100 100 100 100 100 100 100 97 100 97 97 97 94 87 87 81 81 84 81 74 77 84 68 61 39 29 6 6 16 39 77 90 81 71 68 71 77
58 71 74 81 97 100 100 100 100 97 97 100 100 100 100 100 97 94 94 87 84 87 84 84 74 74 68 71 71 55 32 23 6 13 13 45 68 81 71 65 65 61 71
61 61 71 71 77 77 90 100 94 97 97 97 100 97 100 90 84 81 94 94 87 87 81 84 74 74 68 65 61 45 26 19 3 6 23 48 71 68 65 61 55 58 65
65 58 48 61 65 65 55 87 94 94 97 97 94 90 87 81 61 74 81 87 84 84 90 87 71 68 68 58 52 45 26 10 6 16 29 68 74 68 68 65 61 58 55
58 61 65 55 61 52 52 77 84 77 81 81 84 81 77 81 65 65 77 87 81 77 84 77 65 61 52 39 39 45 29 16 6 6 39 65 71 65 61 65 61 61 52
48 52 61 61 68 61 68 68 74 74 84 74 77 71 74 61 58 58 71 81 77 65 52 52 48 26 26 48 52 35 29 6 6 3 39 61 65 58 55 55 52 52 52
52 48 61 61 84 84 77 65 71 61 61 68 77 65 58 58 52 52 65 48 45 55 52 23 39 35 39 32 32 35 23 26 26 26 68 61 61 58 58 45 42 45 48
55 52 58 77 94 94 90 77 42 55 58 61 77 65 61 39 45 48 65 61 32 42 45 45 45 45 32 39 29 26 29 32 23 6 45 52 58 71 65 52 58 45 45
55 65 71 74 87 90 90 84 61 58 74 55 68 61 55 48 48 52 58 61 35 52 42 45 29 48 32 29 26 32 35 23 26 26 29 39 52 65 61 68 58 52 42
61 81 77 74 81 84 71 65 52 55 55 61 61 65 58 45 58 48 52 48 42 48 55 55 29 39 39 26 23 16 26 35 23 23 26 35 35 45 65 65 58 55 55
68 81 87 61 74 74 74 74 61 52 58 68 52 58 52 55 65 65 55 45 52 52 48 52 42 42 29 32 26 26 29 42 26 23 19 23 39 29 42 55 55 55 52
71 84 84 87 84 71 65 71 65 71 65 68 42 55 55 55 61 61 55 71 55 48 42 32 35 42 48 48 26 42 26 29 35 23 16 16 29 35 35 52 55 58 42
81 81 84 90 90 81 81 77 74 65 65 68 58 68 58 61 55 58 52 55 45 52 48 45 65 61 61 58 6 13 23 19 23 23 16 13 29 26 23 23 55 58 55
81 84 84 84 87 81 84 65 68 65 58 58 58 58 68 61 58 81 39 58 58 52 58 39 48 42 39 48 35 23 19 13 16 42 32 23 10 19 26 35 48 58 58
84 81 77 81 87 84 77 71 71 58 52 58 58 71 65 55 61 45 77 52 52 65 61 61 77 68 32 29 42 32 23 26 32 10 29 35 23 23 29 26 48 58 65
84 81 74 81 84 81 68 65 58 65 65 52 61 68 68 58 65 65 61 61 74 61 71 77 84 65 61 48 23 29 23 23 32 13 19 29 35 42 32 29 39 55 61
84 81 81 77 77 77 74 58 48 52 48 55 74 58 65 58 65 58 61 68 71 61 74 65 42 68 65 58 52 52 32 29 26 29 19 6 19 29 32 23 23 35 52
77 71 77 81 81 71 68 65 65 48 45 45 55 65 77 68 71 68 61 68 74 71 71 68 68 68 65 65 65 42 45 61 29 35 32 35 19 23 29 32 29 23 29
74 71 65 81 81 77 71 68 65 65 65 52 65 71 71 71 68 68 74 77 71 65 71 74 68 61 65 65 65 55 58 42 39 39 32 39 32 23 16 26 26 29 29